Time,TemperatureF,DewpointF,PressureIn,WindDirection,WindDirectionDegrees,WindSpeedMPH,WindSpeedGustMPH,Humidity,HourlyPrecipIn,Conditions,Clouds,dailyrainin,SoftwareType,DateUTC
2013-03-07 00:04:00,29.0,24.4,30.26,East,95,3.0,6.2,82,0.00,,,-99.99,Meteorologica,2013-03-07 06:04:00,
2013-03-07 00:09:00,29.1,24.4,30.27,SE,125,0.0,5.3,82,0.00,,,-99.99,Meteorologica,2013-03-07 06:09:00,
2013-03-07 00:14:00,29.0,24.3,30.27,SE,125,0.0,0.0,82,0.00,,,-99.99,Meteorologica,2013-03-07 06:14:00,
2013-03-07 00:19:00,28.9,24.3,30.27,ESE,121,0.0,5.5,82,0.00,,,-99.99,Meteorologica,2013-03-07 06:19:00,
2013-03-07 00:24:00,28.6,24.1,30.27,ESE,121,0.0,0.0,83,0.00,,,-99.99,Meteorologica,2013-03-07 06:24:00,
2013-03-07 00:29:00,28.5,24.1,30.26,ESE,121,0.0,0.0,83,0.00,,,-99.99,Meteorologica,2013-03-07 06:29:00,
2013-03-07 00:34:00,28.2,23.8,30.27,ESE,121,0.0,0.0,83,0.00,,,-99.99,Meteorologica,2013-03-07 06:34:00,
2013-03-07 00:39:00,28.3,24.0,30.27,ESE,121,0.0,0.0,83,0.00,,,-99.99,Meteorologica,2013-03-07 06:39:00,
2013-03-07 00:44:00,28.1,23.8,30.27,ESE,121,0.0,0.0,83,0.00,,,-99.99,Meteorologica,2013-03-07 06:44:00,
2013-03-07 00:49:00,28.0,23.9,30.26,ESE,122,0.0,0.0,84,0.00,,,-99.99,Meteorologica,2013-03-07 06:49:00,
2013-03-07 00:54:00,28.0,23.9,30.26,ESE,117,0.0,2.2,84,0.00,,,-99.99,Meteorologica,2013-03-07 06:54:00,
2013-03-07 00:59:00,28.0,23.9,30.26,SSW,204,0.0,3.2,84,0.00,,,-99.99,Meteorologica,2013-03-07 06:59:00,
2013-03-07 01:04:00,27.9,23.9,30.25,SSE,162,0.0,5.7,84,0.00,,,-99.99,Meteorologica,2013-03-07 07:04:00,
2013-03-07 01:09:00,27.7,23.9,30.26,SE,144,4.6,6.3,85,0.00,,,-99.99,Meteorologica,2013-03-07 07:09:00,
2013-03-07 01:14:00,27.6,23.8,30.26,SSE,148,4.4,8.0,85,0.00,,,-99.99,Meteorologica,2013-03-07 07:14:00,
2013-03-07 01:19:00,27.6,23.8,30.26,SE,125,0.0,5.1,85,0.00,,,-99.99,Meteorologica,2013-03-07 07:19:00,
2013-03-07 01:24:00,27.7,23.8,30.26,ESE,112,0.0,5.6,85,0.00,,,-99.99,Meteorologica,2013-03-07 07:24:00,
2013-03-07 01:29:00,27.6,23.9,30.25,ESE,123,0.9,5.2,86,0.00,,,-99.99,Meteorologica,2013-03-07 07:29:00,
2013-03-07 01:34:00,27.3,23.8,30.26,East,82,3.8,8.9,86,0.00,,,-99.99,Meteorologica,2013-03-07 07:34:00,
2013-03-07 01:39:00,27.4,23.9,30.26,East,87,0.6,4.2,86,0.00,,,-99.99,Meteorologica,2013-03-07 07:39:00,
2013-03-07 01:44:00,27.5,23.9,30.25,East,84,5.3,7.1,86,0.00,,,-99.99,Meteorologica,2013-03-07 07:44:00,
2013-03-07 01:49:00,27.5,23.9,30.25,East,80,4.4,8.2,86,0.00,,,-99.99,Meteorologica,2013-03-07 07:49:00,
2013-03-07 01:54:00,27.4,23.8,30.25,East,87,1.2,5.6,86,0.00,,,-99.99,Meteorologica,2013-03-07 07:54:00,
2013-03-07 02:00:00,27.4,23.8,30.25,SSE,158,2.5,7.9,86,0.00,,,-99.99,Meteorologica,2013-03-07 08:00:00,
2013-03-07 02:05:00,27.3,23.8,30.25,SSE,147,3.5,9.9,86,0.00,,,-99.99,Meteorologica,2013-03-07 08:05:00,
2013-03-07 02:10:00,27.3,23.9,30.24,ESE,121,0.3,10.4,86,0.00,,,-99.99,Meteorologica,2013-03-07 08:10:00,
2013-03-07 02:15:00,27.2,23.9,30.24,ESE,115,1.2,7.5,87,0.00,,,-99.99,Meteorologica,2013-03-07 08:15:00,
2013-03-07 02:20:00,27.2,23.8,30.24,South,180,1.4,7.8,87,0.00,,,-99.99,Meteorologica,2013-03-07 08:20:00,
2013-03-07 02:25:00,27.2,23.8,30.23,South,175,3.9,8.5,87,0.00,,,-99.99,Meteorologica,2013-03-07 08:25:00,
2013-03-07 02:31:00,27.1,23.8,30.23,SE,143,4.3,5.2,87,0.00,,,-99.99,Meteorologica,2013-03-07 08:31:00,
2013-03-07 02:36:00,27.0,23.8,30.23,ESE,119,1.0,5.5,87,0.00,,,-99.99,Meteorologica,2013-03-07 08:36:00,
2013-03-07 02:41:00,27.0,23.8,30.23,ESE,114,3.8,9.7,87,0.00,,,-99.99,Meteorologica,2013-03-07 08:41:00,
2013-03-07 02:46:00,26.9,23.8,30.22,SSE,156,6.6,10.0,88,0.00,,,-99.99,Meteorologica,2013-03-07 08:46:00,
2013-03-07 02:51:00,26.8,23.7,30.22,SE,142,5.2,7.1,87,0.00,,,-99.99,Meteorologica,2013-03-07 08:51:00,
2013-03-07 02:56:00,26.8,23.6,30.23,SSE,167,3.7,6.2,87,0.00,,,-99.99,Meteorologica,2013-03-07 08:56:00,
2013-03-07 03:01:00,27.0,23.9,30.22,South,183,2.5,6.1,88,0.00,,,-99.99,Meteorologica,2013-03-07 09:01:00,
2013-03-07 03:06:00,26.6,23.5,30.22,SSW,201,0.0,0.0,88,0.00,,,-99.99,Meteorologica,2013-03-07 09:06:00,
2013-03-07 03:11:00,26.6,23.6,30.22,ENE,73,0.0,0.0,88,0.00,,,-99.99,Meteorologica,2013-03-07 09:11:00,
2013-03-07 03:16:00,26.6,23.6,30.22,South,176,3.5,4.8,88,0.00,,,-99.99,Meteorologica,2013-03-07 09:16:00,
2013-03-07 03:21:00,26.5,23.7,30.22,SSE,152,3.6,6.0,89,0.00,,,-99.99,Meteorologica,2013-03-07 09:21:00,
2013-03-07 03:26:00,26.4,23.5,30.22,SSE,167,1.5,6.2,88,0.00,,,-99.99,Meteorologica,2013-03-07 09:26:00,
2013-03-07 03:31:00,26.4,23.6,30.21,SE,135,2.7,6.0,89,0.00,,,-99.99,Meteorologica,2013-03-07 09:31:00,
2013-03-07 03:36:00,26.4,23.6,30.21,SSE,164,6.7,8.9,89,0.00,,,-99.99,Meteorologica,2013-03-07 09:36:00,
2013-03-07 03:41:00,26.3,23.6,30.20,South,179,6.2,7.7,89,0.00,,,-99.99,Meteorologica,2013-03-07 09:41:00,
2013-03-07 03:46:00,26.3,23.7,30.21,South,170,5.8,7.8,89,0.00,,,-99.99,Meteorologica,2013-03-07 09:46:00,
2013-03-07 03:51:00,26.1,23.4,30.21,SE,146,3.5,4.5,89,0.00,,,-99.99,Meteorologica,2013-03-07 09:51:00,
2013-03-07 03:56:00,26.2,23.5,30.21,SE,135,3.0,5.6,89,0.00,,,-99.99,Meteorologica,2013-03-07 09:56:00,
2013-03-07 04:01:00,26.0,23.3,30.21,South,170,1.7,9.4,89,0.00,,,-99.99,Meteorologica,2013-03-07 10:01:00,
2013-03-07 04:06:00,26.0,23.3,30.21,South,184,5.9,11.7,89,0.00,,,-99.99,Meteorologica,2013-03-07 10:06:00,
2013-03-07 04:11:00,26.0,23.3,30.22,South,190,0.0,0.0,89,0.00,,,-99.99,Meteorologica,2013-03-07 10:11:00,
2013-03-07 04:16:00,26.0,23.3,30.21,SW,223,4.5,7.9,89,0.00,,,-99.99,Meteorologica,2013-03-07 10:16:00,
2013-03-07 04:21:00,25.8,23.2,30.21,SE,125,3.5,5.4,90,0.00,,,-99.99,Meteorologica,2013-03-07 10:21:00,
2013-03-07 04:26:00,25.8,23.2,30.22,SE,131,3.2,5.1,90,0.00,,,-99.99,Meteorologica,2013-03-07 10:26:00,
2013-03-07 04:31:00,25.6,23.0,30.21,South,174,1.6,4.6,89,0.00,,,-99.99,Meteorologica,2013-03-07 10:31:00,
2013-03-07 04:36:00,25.7,23.1,30.22,SSE,162,3.5,7.3,90,0.00,,,-99.99,Meteorologica,2013-03-07 10:36:00,
2013-03-07 04:41:00,25.7,23.1,30.21,SW,231,2.3,5.6,90,0.00,,,-99.99,Meteorologica,2013-03-07 10:41:00,
2013-03-07 04:46:00,25.6,23.1,30.22,NE,38,3.2,5.7,90,0.00,,,-99.99,Meteorologica,2013-03-07 10:46:00,
2013-03-07 04:51:00,25.6,23.0,30.21,South,173,3.9,5.5,90,0.00,,,-99.99,Meteorologica,2013-03-07 10:51:00,
2013-03-07 04:56:00,25.6,23.0,30.21,SE,140,2.9,6.0,90,0.00,,,-99.99,Meteorologica,2013-03-07 10:56:00,
2013-03-07 05:01:00,25.5,22.9,30.22,South,180,5.3,7.0,90,0.00,,,-99.99,Meteorologica,2013-03-07 11:01:00,
2013-03-07 05:06:00,25.6,23.1,30.21,ESE,119,0.7,0.0,90,0.00,,,-99.99,Meteorologica,2013-03-07 11:06:00,
2013-03-07 05:11:00,25.6,23.1,30.21,SE,141,5.6,8.2,90,0.00,,,-99.99,Meteorologica,2013-03-07 11:11:00,
2013-03-07 05:16:00,25.4,23.0,30.21,South,169,3.9,6.4,90,0.00,,,-99.99,Meteorologica,2013-03-07 11:16:00,
2013-03-07 05:21:00,25.4,22.9,30.21,SE,143,4.0,5.8,90,0.00,,,-99.99,Meteorologica,2013-03-07 11:21:00,
2013-03-07 05:26:00,25.6,23.1,30.21,SE,128,1.6,5.3,90,0.00,,,-99.99,Meteorologica,2013-03-07 11:26:00,
2013-03-07 05:31:00,25.4,22.9,30.21,NNE,33,2.3,5.3,90,0.00,,,-99.99,Meteorologica,2013-03-07 11:31:00,
2013-03-07 05:36:00,25.4,22.9,30.21,ESE,117,4.3,5.7,90,0.00,,,-99.99,Meteorologica,2013-03-07 11:36:00,
2013-03-07 05:41:00,25.4,22.9,30.21,ESE,106,1.8,5.7,90,0.00,,,-99.99,Meteorologica,2013-03-07 11:41:00,
2013-03-07 05:46:00,25.5,23.0,30.21,SE,129,5.0,7.3,90,0.00,,,-99.99,Meteorologica,2013-03-07 11:46:00,
2013-03-07 05:51:00,25.5,23.0,30.22,ENE,60,0.0,0.0,90,0.00,,,-99.99,Meteorologica,2013-03-07 11:51:00,
2013-03-07 05:56:00,25.4,22.9,30.22,ESE,120,4.7,6.6,90,0.00,,,-99.99,Meteorologica,2013-03-07 11:56:00,
2013-03-07 06:01:00,25.5,23.0,30.22,ESE,104,3.7,5.0,90,0.00,,,-99.99,Meteorologica,2013-03-07 12:01:00,
2013-03-07 06:06:00,25.6,23.1,30.22,ESE,115,4.0,5.2,90,0.00,,,-99.99,Meteorologica,2013-03-07 12:06:00,
2013-03-07 06:11:00,25.3,22.8,30.21,ENE,69,2.8,6.5,90,0.00,,,-99.99,Meteorologica,2013-03-07 12:11:00,
2013-03-07 06:16:00,25.5,23.0,30.21,SE,128,3.7,5.1,90,0.00,,,-99.99,Meteorologica,2013-03-07 12:16:00,
2013-03-07 06:21:00,25.4,22.9,30.22,SSE,163,2.0,6.6,90,0.00,,,-99.99,Meteorologica,2013-03-07 12:21:00,
2013-03-07 06:26:00,25.4,22.9,30.21,SSE,163,4.4,9.3,90,0.00,,,-99.99,Meteorologica,2013-03-07 12:26:00,
2013-03-07 06:31:00,25.3,22.8,30.21,ESE,117,1.7,5.9,90,0.00,,,-99.99,Meteorologica,2013-03-07 12:31:00,
2013-03-07 06:36:00,25.4,22.9,30.21,SSE,153,4.2,7.1,90,0.00,,,-99.99,Meteorologica,2013-03-07 12:36:00,
2013-03-07 06:41:00,25.3,22.8,30.21,South,182,5.0,6.9,90,0.00,,,-99.99,Meteorologica,2013-03-07 12:41:00,
2013-03-07 06:46:00,25.2,22.8,30.21,ESE,121,6.8,11.0,90,0.00,,,-99.99,Meteorologica,2013-03-07 12:46:00,
2013-03-07 06:51:00,25.3,22.8,30.21,SE,134,3.1,4.6,90,0.00,,,-99.99,Meteorologica,2013-03-07 12:51:00,
2013-03-07 06:56:00,25.4,22.9,30.21,East,94,3.1,4.3,90,0.00,,,-99.99,Meteorologica,2013-03-07 12:56:00,
2013-03-07 07:01:00,25.3,22.8,30.21,SSE,156,0.9,0.0,90,0.00,,,-99.99,Meteorologica,2013-03-07 13:01:00,
2013-03-07 07:06:00,25.5,23.0,30.21,South,190,6.1,8.3,90,0.00,,,-99.99,Meteorologica,2013-03-07 13:06:00,
2013-03-07 07:11:00,25.7,23.2,30.21,South,173,5.4,8.5,90,0.00,,,-99.99,Meteorologica,2013-03-07 13:11:00,
2013-03-07 07:16:00,25.8,23.3,30.21,East,86,5.3,6.6,90,0.00,,,-99.99,Meteorologica,2013-03-07 13:16:00,
2013-03-07 07:21:00,25.8,23.3,30.22,East,81,1.8,4.5,90,0.00,,,-99.99,Meteorologica,2013-03-07 13:21:00,
2013-03-07 07:26:00,25.9,23.3,30.22,SE,143,2.8,6.1,90,0.00,,,-99.99,Meteorologica,2013-03-07 13:26:00,
2013-03-07 07:31:00,26.1,23.5,30.22,ESE,105,0.0,0.0,89,0.00,,,-99.99,Meteorologica,2013-03-07 13:31:00,
2013-03-07 07:36:00,26.2,23.6,30.22,NE,39,1.7,5.0,90,0.00,,,-99.99,Meteorologica,2013-03-07 13:36:00,
2013-03-07 07:41:00,26.3,23.6,30.22,East,83,6.2,9.7,89,0.00,,,-99.99,Meteorologica,2013-03-07 13:41:00,
2013-03-07 07:46:00,26.6,23.9,30.22,SE,124,7.3,8.9,89,0.00,,,-99.99,Meteorologica,2013-03-07 13:46:00,
2013-03-07 07:51:00,26.7,24.0,30.22,East,93,2.8,4.9,89,0.00,,,-99.99,Meteorologica,2013-03-07 13:51:00,
2013-03-07 07:56:00,27.1,24.2,30.22,South,179,5.6,10.5,88,0.00,,,-99.99,Meteorologica,2013-03-07 13:56:00,
2013-03-07 08:01:00,27.4,24.3,30.22,SSE,167,3.8,9.7,88,0.00,,,-99.99,Meteorologica,2013-03-07 14:01:00,
2013-03-07 08:06:00,27.8,24.6,30.22,ESE,115,5.5,8.9,87,0.00,,,-99.99,Meteorologica,2013-03-07 14:06:00,
2013-03-07 08:11:00,28.5,25.0,30.22,ESE,112,4.9,7.6,86,0.00,,,-99.99,Meteorologica,2013-03-07 14:11:00,
2013-03-07 08:16:00,28.8,25.4,30.21,SSE,166,6.8,10.7,86,0.00,,,-99.99,Meteorologica,2013-03-07 14:16:00,
2013-03-07 08:21:00,29.2,25.5,30.21,SSE,152,6.8,10.5,86,0.00,,,-99.99,Meteorologica,2013-03-07 14:21:00,
2013-03-07 08:27:00,29.8,25.8,30.21,SSE,167,5.7,10.4,84,0.00,,,-99.99,Meteorologica,2013-03-07 14:27:00,
2013-03-07 08:32:00,30.3,26.1,30.21,East,89,7.5,12.0,83,0.00,,,-99.99,Meteorologica,2013-03-07 14:32:00,
2013-03-07 08:37:00,30.8,26.4,30.21,ENE,69,3.9,9.1,83,0.00,,,-99.99,Meteorologica,2013-03-07 14:37:00,
2013-03-07 08:42:00,31.2,26.6,30.21,SE,137,9.4,14.9,82,0.00,,,-99.99,Meteorologica,2013-03-07 14:42:00,
2013-03-07 08:47:00,31.6,26.7,30.22,SE,132,7.3,12.2,81,0.00,,,-99.99,Meteorologica,2013-03-07 14:47:00,
2013-03-07 08:52:00,32.1,27.0,30.22,SSE,155,7.6,12.3,81,0.00,,,-99.99,Meteorologica,2013-03-07 14:52:00,
2013-03-07 08:57:00,32.6,27.3,30.22,ESE,122,5.4,11.6,80,0.00,,,-99.99,Meteorologica,2013-03-07 14:57:00,
2013-03-07 09:02:00,33.2,27.5,30.22,SSE,152,5.1,9.5,79,0.00,,,-99.99,Meteorologica,2013-03-07 15:02:00,
2013-03-07 09:07:00,33.6,27.6,30.22,SE,129,9.0,14.2,78,0.00,,,-99.99,Meteorologica,2013-03-07 15:07:00,
2013-03-07 09:12:00,34.2,28.1,30.22,SW,232,6.0,11.3,78,0.00,,,-99.99,Meteorologica,2013-03-07 15:12:00,
2013-03-07 09:18:00,34.8,28.3,30.22,South,175,6.1,10.2,76,0.00,,,-99.99,Meteorologica,2013-03-07 15:18:00,
2013-03-07 09:23:00,35.1,28.3,30.22,ESE,108,6.5,16.9,76,0.00,,,-99.99,Meteorologica,2013-03-07 15:23:00,
2013-03-07 09:28:00,35.7,28.6,30.22,SE,124,8.2,13.3,75,0.00,,,-99.99,Meteorologica,2013-03-07 15:28:00,
2013-03-07 09:33:00,36.3,28.8,30.22,SSE,156,6.0,10.8,73,0.00,,,-99.99,Meteorologica,2013-03-07 15:33:00,
2013-03-07 09:38:00,37.0,29.2,30.22,SE,137,5.1,12.3,73,0.00,,,-99.99,Meteorologica,2013-03-07 15:38:00,
2013-03-07 09:43:00,37.6,29.2,30.22,SE,134,6.4,10.6,71,0.00,,,-99.99,Meteorologica,2013-03-07 15:43:00,
2013-03-07 09:48:00,38.2,29.9,30.22,SSE,167,2.5,10.2,71,0.00,,,-99.99,Meteorologica,2013-03-07 15:48:00,
2013-03-07 09:53:00,38.7,29.9,30.21,SE,128,5.5,12.6,70,0.00,,,-99.99,Meteorologica,2013-03-07 15:53:00,
2013-03-07 09:58:00,39.2,29.6,30.21,SE,130,7.5,12.2,67,0.00,,,-99.99,Meteorologica,2013-03-07 15:58:00,
2013-03-07 10:03:00,39.7,29.9,30.21,ESE,105,6.0,11.7,67,0.00,,,-99.99,Meteorologica,2013-03-07 16:03:00,
2013-03-07 10:08:00,39.8,30.1,30.21,ESE,121,6.8,12.6,67,0.00,,,-99.99,Meteorologica,2013-03-07 16:08:00,
2013-03-07 10:13:00,40.2,30.0,30.21,SE,127,6.7,12.0,66,0.00,,,-99.99,Meteorologica,2013-03-07 16:13:00,
2013-03-07 10:18:00,40.7,30.2,30.20,ESE,103,7.5,9.9,65,0.00,,,-99.99,Meteorologica,2013-03-07 16:18:00,
2013-03-07 10:23:00,41.6,30.4,30.21,ESE,113,8.7,11.7,64,0.00,,,-99.99,Meteorologica,2013-03-07 16:23:00,
2013-03-07 10:28:00,42.3,30.6,30.20,SE,144,8.5,14.9,62,0.00,,,-99.99,Meteorologica,2013-03-07 16:28:00,
2013-03-07 10:33:00,43.1,31.4,30.20,SSE,158,1.7,8.1,62,0.00,,,-99.99,Meteorologica,2013-03-07 16:33:00,
2013-03-07 10:38:00,44.0,31.3,30.20,SSW,200,6.8,11.2,60,0.00,,,-99.99,Meteorologica,2013-03-07 16:38:00,
2013-03-07 10:43:00,44.5,31.6,30.20,SSE,147,5.9,10.8,60,0.00,,,-99.99,Meteorologica,2013-03-07 16:43:00,
2013-03-07 10:48:00,45.1,32.1,30.19,SSE,154,5.4,10.5,59,0.00,,,-99.99,Meteorologica,2013-03-07 16:48:00,
2013-03-07 10:53:00,45.5,31.5,30.19,SE,141,6.9,13.1,57,0.00,,,-99.99,Meteorologica,2013-03-07 16:53:00,
2013-03-07 10:58:00,45.7,31.6,30.19,ESE,111,6.3,12.0,57,0.00,,,-99.99,Meteorologica,2013-03-07 16:58:00,
2013-03-07 11:03:00,46.4,31.7,30.19,SSE,151,5.9,10.2,56,0.00,,,-99.99,Meteorologica,2013-03-07 17:03:00,
2013-03-07 11:08:00,47.2,30.9,30.19,SE,130,9.8,14.7,53,0.00,,,-99.99,Meteorologica,2013-03-07 17:08:00,
2013-03-07 11:13:00,47.4,30.9,30.18,SE,126,9.7,14.6,52,0.00,,,-99.99,Meteorologica,2013-03-07 17:13:00,
2013-03-07 11:18:00,48.0,31.5,30.18,South,186,7.4,14.3,52,0.00,,,-99.99,Meteorologica,2013-03-07 17:18:00,
2013-03-07 11:23:00,48.8,31.6,30.18,SE,141,9.0,13.9,51,0.00,,,-99.99,Meteorologica,2013-03-07 17:23:00,
2013-03-07 11:28:00,49.1,31.6,30.18,SE,131,7.7,14.1,50,0.00,,,-99.99,Meteorologica,2013-03-07 17:28:00,
2013-03-07 11:33:00,48.9,31.3,30.18,SE,131,6.1,13.6,50,0.00,,,-99.99,Meteorologica,2013-03-07 17:33:00,
2013-03-07 11:38:00,48.9,31.5,30.17,SE,137,7.1,14.1,50,0.00,,,-99.99,Meteorologica,2013-03-07 17:38:00,
2013-03-07 11:43:00,49.7,30.9,30.17,SSE,159,8.7,16.2,48,0.00,,,-99.99,Meteorologica,2013-03-07 17:43:00,
2013-03-07 11:48:00,50.2,30.7,30.16,SE,133,8.3,17.3,47,0.00,,,-99.99,Meteorologica,2013-03-07 17:48:00,
2013-03-07 11:53:00,50.8,30.9,30.16,South,188,9.6,13.5,46,0.00,,,-99.99,Meteorologica,2013-03-07 17:53:00,
2013-03-07 11:58:00,50.9,30.7,30.16,ESE,117,7.8,15.4,45,0.00,,,-99.99,Meteorologica,2013-03-07 17:58:00,
2013-03-07 12:03:00,51.7,31.8,30.16,East,101,5.4,14.3,46,0.00,,,-99.99,Meteorologica,2013-03-07 18:03:00,
2013-03-07 12:08:00,52.4,30.4,30.16,SSE,147,7.9,16.6,42,0.00,,,-99.99,Meteorologica,2013-03-07 18:08:00,
2013-03-07 12:13:00,52.8,31.0,30.15,ESE,109,7.7,12.2,43,0.00,,,-99.99,Meteorologica,2013-03-07 18:13:00,
2013-03-07 12:19:00,53.4,30.5,30.16,ESE,123,10.3,17.5,41,0.00,,,-99.99,Meteorologica,2013-03-07 18:19:00,
2013-03-07 12:24:00,53.5,31.3,30.15,SE,134,7.9,14.1,42,0.00,,,-99.99,Meteorologica,2013-03-07 18:24:00,
2013-03-07 12:29:00,53.6,31.7,30.14,East,88,4.6,13.8,43,0.00,,,-99.99,Meteorologica,2013-03-07 18:29:00,
2013-03-07 12:34:00,54.4,31.0,30.14,South,176,6.8,14.8,41,0.00,,,-99.99,Meteorologica,2013-03-07 18:34:00,
2013-03-07 12:39:00,54.6,31.1,30.14,South,170,8.3,13.3,40,0.00,,,-99.99,Meteorologica,2013-03-07 18:39:00,
2013-03-07 12:44:00,54.6,31.6,30.14,South,176,6.0,14.9,41,0.00,,,-99.99,Meteorologica,2013-03-07 18:44:00,
2013-03-07 12:49:00,55.0,31.9,30.14,SE,133,7.1,13.6,41,0.00,,,-99.99,Meteorologica,2013-03-07 18:49:00,
2013-03-07 12:54:00,55.2,32.0,30.13,SSW,197,7.4,14.5,41,0.00,,,-99.99,Meteorologica,2013-03-07 18:54:00,
2013-03-07 12:59:00,55.4,31.9,30.13,SSE,148,5.8,16.9,40,0.00,,,-99.99,Meteorologica,2013-03-07 18:59:00,
2013-03-07 13:04:00,56.1,31.6,30.12,ESE,121,8.0,13.2,39,0.00,,,-99.99,Meteorologica,2013-03-07 19:04:00,
2013-03-07 13:09:00,56.6,32.3,30.12,SW,215,8.7,15.1,39,0.00,,,-99.99,Meteorologica,2013-03-07 19:09:00,
2013-03-07 13:14:00,57.2,31.8,30.12,SSE,152,10.1,14.8,38,0.00,,,-99.99,Meteorologica,2013-03-07 19:14:00,
2013-03-07 13:19:00,57.5,31.6,30.11,SE,141,7.8,19.7,37,0.00,,,-99.99,Meteorologica,2013-03-07 19:19:00,
2013-03-07 13:24:00,57.9,31.1,30.11,South,173,5.2,12.6,36,0.00,,,-99.99,Meteorologica,2013-03-07 19:24:00,
2013-03-07 13:29:00,58.2,31.8,30.11,SSW,212,5.9,11.5,36,0.00,,,-99.99,Meteorologica,2013-03-07 19:29:00,
2013-03-07 13:35:00,57.9,31.4,30.11,South,187,7.8,18.2,36,0.00,,,-99.99,Meteorologica,2013-03-07 19:35:00,
2013-03-07 13:40:00,58.2,31.4,30.11,South,175,8.9,17.3,36,0.00,,,-99.99,Meteorologica,2013-03-07 19:40:00,
2013-03-07 13:45:00,58.0,30.5,30.10,SE,124,9.8,18.4,35,0.00,,,-99.99,Meteorologica,2013-03-07 19:45:00,
2013-03-07 13:50:00,57.5,31.3,30.10,SSE,164,8.8,14.8,37,0.00,,,-99.99,Meteorologica,2013-03-07 19:50:00,
2013-03-07 13:55:00,58.0,32.4,30.10,SSE,158,5.7,16.7,38,0.00,,,-99.99,Meteorologica,2013-03-07 19:55:00,
2013-03-07 14:00:00,58.3,32.7,30.10,South,174,6.8,16.0,38,0.00,,,-99.99,Meteorologica,2013-03-07 20:00:00,
2013-03-07 14:05:00,58.4,32.0,30.10,SSE,159,6.2,13.9,36,0.00,,,-99.99,Meteorologica,2013-03-07 20:05:00,
2013-03-07 14:10:00,58.1,31.9,30.10,SE,128,8.4,14.3,37,0.00,,,-99.99,Meteorologica,2013-03-07 20:10:00,
2013-03-07 14:15:00,58.1,32.4,30.09,SSE,154,7.1,14.9,37,0.00,,,-99.99,Meteorologica,2013-03-07 20:15:00,
2013-03-07 14:20:00,58.4,32.7,30.09,SW,214,7.9,16.2,37,0.00,,,-99.99,Meteorologica,2013-03-07 20:20:00,
2013-03-07 14:25:00,58.7,32.7,30.09,SE,129,7.2,18.2,37,0.00,,,-99.99,Meteorologica,2013-03-07 20:25:00,
2013-03-07 14:30:00,58.8,32.6,30.09,SSE,156,8.7,15.3,37,0.00,,,-99.99,Meteorologica,2013-03-07 20:30:00,
2013-03-07 14:35:00,59.0,32.5,30.09,South,184,9.9,16.1,36,0.00,,,-99.99,Meteorologica,2013-03-07 20:35:00,
2013-03-07 14:40:00,59.0,32.1,30.08,SSE,168,9.9,19.3,36,0.00,,,-99.99,Meteorologica,2013-03-07 20:40:00,
2013-03-07 14:45:00,58.9,32.6,30.09,South,169,6.6,17.1,37,0.00,,,-99.99,Meteorologica,2013-03-07 20:45:00,
2013-03-07 14:50:00,59.5,32.3,30.09,SSE,168,7.3,16.9,35,0.00,,,-99.99,Meteorologica,2013-03-07 20:50:00,
2013-03-07 14:55:00,59.7,32.4,30.09,SSE,156,8.5,13.3,35,0.00,,,-99.99,Meteorologica,2013-03-07 20:55:00,
2013-03-07 15:00:00,59.8,33.1,30.09,SSW,200,4.5,15.6,36,0.00,,,-99.99,Meteorologica,2013-03-07 21:00:00,
2013-03-07 15:05:00,59.6,32.3,30.09,SSW,206,8.8,12.9,35,0.00,,,-99.99,Meteorologica,2013-03-07 21:05:00,
2013-03-07 15:11:00,59.8,32.9,30.10,SSE,159,7.1,12.0,36,0.00,,,-99.99,Meteorologica,2013-03-07 21:11:00,
2013-03-07 15:16:00,58.9,31.6,30.09,SW,219,10.5,13.0,35,0.00,,,-99.99,Meteorologica,2013-03-07 21:16:00,
2013-03-07 15:21:00,59.4,33.5,30.09,SSW,207,4.7,6.9,37,0.00,,,-99.99,Meteorologica,2013-03-07 21:21:00,
2013-03-07 15:26:00,59.8,33.5,30.09,East,94,4.7,6.7,37,0.00,,,-99.99,Meteorologica,2013-03-07 21:26:00,
2013-03-07 15:31:00,60.0,33.8,30.09,South,178,4.4,6.0,37,0.00,,,-99.99,Meteorologica,2013-03-07 21:31:00,
2013-03-07 15:36:00,59.8,33.2,30.09,SSW,197,9.7,15.5,36,0.00,,,-99.99,Meteorologica,2013-03-07 21:36:00,
2013-03-07 15:41:00,59.3,33.9,30.09,South,183,6.7,11.2,38,0.00,,,-99.99,Meteorologica,2013-03-07 21:41:00,
2013-03-07 15:46:00,59.4,34.2,30.09,SW,231,5.5,11.1,38,0.00,,,-99.99,Meteorologica,2013-03-07 21:46:00,
2013-03-07 15:51:00,59.4,34.2,30.09,SSE,166,5.9,10.7,38,0.00,,,-99.99,Meteorologica,2013-03-07 21:51:00,
2013-03-07 15:56:00,59.3,34.5,30.09,SSE,152,6.7,10.0,39,0.00,,,-99.99,Meteorologica,2013-03-07 21:56:00,
2013-03-07 16:01:00,59.0,34.4,30.09,SSE,149,5.8,8.4,39,0.00,,,-99.99,Meteorologica,2013-03-07 22:01:00,
2013-03-07 16:06:00,59.2,34.4,30.09,South,189,6.7,13.6,39,0.00,,,-99.99,Meteorologica,2013-03-07 22:06:00,
2013-03-07 16:11:00,59.2,34.9,30.09,South,180,6.4,8.9,40,0.00,,,-99.99,Meteorologica,2013-03-07 22:11:00,
2013-03-07 16:16:00,58.9,35.0,30.09,SSE,159,6.4,8.7,40,0.00,,,-99.99,Meteorologica,2013-03-07 22:16:00,
2013-03-07 16:21:00,58.6,34.9,30.08,South,171,7.7,12.2,41,0.00,,,-99.99,Meteorologica,2013-03-07 22:21:00,
2013-03-07 16:26:00,58.3,35.4,30.08,ESE,119,5.9,10.3,42,0.00,,,-99.99,Meteorologica,2013-03-07 22:26:00,
2013-03-07 16:31:00,57.7,35.1,30.08,SSE,155,8.0,12.6,42,0.00,,,-99.99,Meteorologica,2013-03-07 22:31:00,
2013-03-07 16:36:00,57.6,35.7,30.07,South,187,8.4,15.9,43,0.00,,,-99.99,Meteorologica,2013-03-07 22:36:00,
2013-03-07 16:41:00,57.6,36.0,30.07,SSE,162,3.5,6.4,44,0.00,,,-99.99,Meteorologica,2013-03-07 22:41:00,
2013-03-07 16:46:00,57.6,36.2,30.07,ESE,118,4.8,8.9,44,0.00,,,-99.99,Meteorologica,2013-03-07 22:46:00,
2013-03-07 16:51:00,57.7,36.4,30.08,South,173,5.3,9.4,44,0.00,,,-99.99,Meteorologica,2013-03-07 22:51:00,
2013-03-07 16:56:00,57.7,36.4,30.08,ESE,121,4.2,8.3,44,0.00,,,-99.99,Meteorologica,2013-03-07 22:56:00,
2013-03-07 17:01:00,57.7,36.5,30.08,SE,133,7.2,10.8,45,0.00,,,-99.99,Meteorologica,2013-03-07 23:01:00,
2013-03-07 17:06:00,57.6,36.4,30.08,SE,127,7.3,11.2,45,0.00,,,-99.99,Meteorologica,2013-03-07 23:06:00,
2013-03-07 17:11:00,57.3,36.9,30.08,SSE,159,6.9,15.0,46,0.00,,,-99.99,Meteorologica,2013-03-07 23:11:00,
2013-03-07 17:16:00,57.1,36.9,30.09,SE,132,6.1,11.3,46,0.00,,,-99.99,Meteorologica,2013-03-07 23:16:00,
2013-03-07 17:21:00,57.0,37.1,30.08,SSW,211,6.4,10.4,47,0.00,,,-99.99,Meteorologica,2013-03-07 23:21:00,
2013-03-07 17:26:00,56.8,36.9,30.08,SE,131,1.4,5.9,47,0.00,,,-99.99,Meteorologica,2013-03-07 23:26:00,
2013-03-07 17:31:00,56.7,37.2,30.08,ESE,115,4.8,6.1,48,0.00,,,-99.99,Meteorologica,2013-03-07 23:31:00,
2013-03-07 17:36:00,56.4,37.3,30.09,SSE,162,5.7,8.7,48,0.00,,,-99.99,Meteorologica,2013-03-07 23:36:00,
2013-03-07 17:41:00,56.2,37.3,30.09,ESE,109,2.6,7.8,49,0.00,,,-99.99,Meteorologica,2013-03-07 23:41:00,
2013-03-07 17:46:00,55.9,37.4,30.09,SSE,148,5.4,8.5,49,0.00,,,-99.99,Meteorologica,2013-03-07 23:46:00,
2013-03-07 17:51:00,55.7,37.5,30.09,SE,136,5.0,6.7,50,0.00,,,-99.99,Meteorologica,2013-03-07 23:51:00,
2013-03-07 17:56:00,55.4,37.5,30.10,SE,143,4.6,5.9,50,0.00,,,-99.99,Meteorologica,2013-03-07 23:56:00,
2013-03-07 18:01:00,54.8,37.3,30.10,SE,131,6.5,13.0,51,0.00,,,-99.99,Meteorologica,2013-03-08 00:01:00,
2013-03-07 18:06:00,54.5,37.4,30.10,ESE,114,4.9,7.1,52,0.00,,,-99.99,Meteorologica,2013-03-08 00:06:00,
2013-03-07 18:11:00,54.1,37.5,30.09,East,94,0.0,0.0,53,0.00,,,-99.99,Meteorologica,2013-03-08 00:11:00,
2013-03-07 18:16:00,53.6,37.3,30.09,ESE,121,1.7,3.5,53,0.00,,,-99.99,Meteorologica,2013-03-08 00:16:00,
2013-03-07 18:21:00,53.3,37.2,30.10,East,100,2.3,4.3,54,0.00,,,-99.99,Meteorologica,2013-03-08 00:21:00,
2013-03-07 18:26:00,53.0,37.2,30.10,ESE,103,0.0,0.0,54,0.00,,,-99.99,Meteorologica,2013-03-08 00:26:00,
2013-03-07 18:31:00,52.7,37.2,30.10,SE,135,1.0,3.3,55,0.00,,,-99.99,Meteorologica,2013-03-08 00:31:00,
2013-03-07 18:36:00,52.4,37.1,30.10,East,88,0.8,0.0,55,0.00,,,-99.99,Meteorologica,2013-03-08 00:36:00,
2013-03-07 18:41:00,52.0,37.1,30.10,ESE,105,0.3,0.0,56,0.00,,,-99.99,Meteorologica,2013-03-08 00:41:00,
2013-03-07 18:46:00,51.6,37.0,30.10,SE,132,0.0,0.0,57,0.00,,,-99.99,Meteorologica,2013-03-08 00:46:00,
2013-03-07 18:51:00,51.0,36.7,30.10,SE,141,1.0,5.1,57,0.00,,,-99.99,Meteorologica,2013-03-08 00:51:00,
2013-03-07 18:56:00,50.6,36.7,30.10,ESE,112,0.0,0.0,58,0.00,,,-99.99,Meteorologica,2013-03-08 00:56:00,
2013-03-07 19:01:00,50.3,36.7,30.10,East,97,3.0,4.8,59,0.00,,,-99.99,Meteorologica,2013-03-08 01:01:00,
2013-03-07 19:06:00,50.2,36.8,30.10,ESE,119,0.5,3.3,59,0.00,,,-99.99,Meteorologica,2013-03-08 01:06:00,
2013-03-07 19:11:00,49.7,36.5,30.10,ESE,103,6.2,9.3,60,0.00,,,-99.99,Meteorologica,2013-03-08 01:11:00,
2013-03-07 19:16:00,49.5,36.3,30.10,ESE,120,6.6,12.3,60,0.00,,,-99.99,Meteorologica,2013-03-08 01:16:00,
2013-03-07 19:21:00,49.4,36.3,30.10,SSE,151,5.1,9.0,60,0.00,,,-99.99,Meteorologica,2013-03-08 01:21:00,
2013-03-07 19:26:00,49.2,36.2,30.11,SE,131,5.7,10.4,60,0.00,,,-99.99,Meteorologica,2013-03-08 01:26:00,
2013-03-07 19:31:00,48.9,36.0,30.11,East,80,4.5,6.7,60,0.00,,,-99.99,Meteorologica,2013-03-08 01:31:00,
2013-03-07 19:36:00,48.8,36.2,30.10,ESE,108,5.0,7.1,61,0.00,,,-99.99,Meteorologica,2013-03-08 01:36:00,
2013-03-07 19:41:00,48.4,36.2,30.11,SSE,157,3.3,7.0,62,0.00,,,-99.99,Meteorologica,2013-03-08 01:41:00,
2013-03-07 19:46:00,48.1,36.0,30.11,SE,140,6.0,10.3,62,0.00,,,-99.99,Meteorologica,2013-03-08 01:46:00,
2013-03-07 19:51:00,47.8,36.0,30.11,ESE,123,4.7,8.3,63,0.00,,,-99.99,Meteorologica,2013-03-08 01:51:00,
2013-03-07 19:56:00,47.9,36.1,30.11,East,97,2.4,4.5,63,0.00,,,-99.99,Meteorologica,2013-03-08 01:56:00,
2013-03-07 20:01:00,47.6,36.2,30.11,ESE,119,6.3,10.3,64,0.00,,,-99.99,Meteorologica,2013-03-08 02:01:00,
2013-03-07 20:06:00,47.4,36.1,30.11,ESE,116,6.5,8.1,64,0.00,,,-99.99,Meteorologica,2013-03-08 02:06:00,
2013-03-07 20:11:00,47.1,36.1,30.11,ESE,123,6.1,7.6,65,0.00,,,-99.99,Meteorologica,2013-03-08 02:11:00,
2013-03-07 20:16:00,46.9,36.0,30.11,East,98,4.2,6.6,65,0.00,,,-99.99,Meteorologica,2013-03-08 02:16:00,
2013-03-07 20:21:00,46.7,35.9,30.11,SE,130,4.8,9.4,65,0.00,,,-99.99,Meteorologica,2013-03-08 02:21:00,
2013-03-07 20:26:00,46.3,35.6,30.12,ESE,102,5.2,6.1,65,0.00,,,-99.99,Meteorologica,2013-03-08 02:26:00,
2013-03-07 20:31:00,46.2,35.6,30.12,East,101,5.4,9.3,66,0.00,,,-99.99,Meteorologica,2013-03-08 02:31:00,
2013-03-07 20:36:00,45.9,35.4,30.12,SE,130,2.9,6.0,66,0.00,,,-99.99,Meteorologica,2013-03-08 02:36:00,
2013-03-07 20:41:00,45.6,35.4,30.13,SE,140,6.9,9.1,67,0.00,,,-99.99,Meteorologica,2013-03-08 02:41:00,
2013-03-07 20:46:00,45.3,35.4,30.13,East,100,3.4,6.6,67,0.00,,,-99.99,Meteorologica,2013-03-08 02:46:00,
2013-03-07 20:51:00,44.9,35.3,30.13,ESE,108,2.1,6.7,68,0.00,,,-99.99,Meteorologica,2013-03-08 02:51:00,
2013-03-07 20:56:00,44.5,35.1,30.14,SE,126,5.2,7.4,69,0.00,,,-99.99,Meteorologica,2013-03-08 02:56:00,
2013-03-07 21:01:00,44.1,34.9,30.13,ESE,108,7.2,8.4,69,0.00,,,-99.99,Meteorologica,2013-03-08 03:01:00,
2013-03-07 21:06:00,43.6,34.6,30.14,ESE,112,6.9,9.7,70,0.00,,,-99.99,Meteorologica,2013-03-08 03:06:00,
2013-03-07 21:11:00,43.4,34.6,30.14,East,96,0.5,0.0,70,0.00,,,-99.99,Meteorologica,2013-03-08 03:11:00,
2013-03-07 21:16:00,42.9,34.4,30.14,ESE,120,4.4,8.5,71,0.00,,,-99.99,Meteorologica,2013-03-08 03:16:00,
2013-03-07 21:21:00,42.5,34.3,30.15,ENE,74,0.0,0.0,72,0.00,,,-99.99,Meteorologica,2013-03-08 03:21:00,
2013-03-07 21:26:00,42.2,34.2,30.14,East,79,1.9,0.0,73,0.00,,,-99.99,Meteorologica,2013-03-08 03:26:00,
2013-03-07 21:31:00,41.7,34.0,30.15,ENE,66,5.2,7.3,73,0.00,,,-99.99,Meteorologica,2013-03-08 03:31:00,
2013-03-07 21:36:00,41.2,33.7,30.15,SE,125,0.0,0.0,74,0.00,,,-99.99,Meteorologica,2013-03-08 03:36:00,
2013-03-07 21:41:00,40.8,33.5,30.15,South,177,1.0,4.2,74,0.00,,,-99.99,Meteorologica,2013-03-08 03:41:00,
2013-03-07 21:46:00,40.4,33.3,30.15,SE,125,4.6,9.5,75,0.00,,,-99.99,Meteorologica,2013-03-08 03:46:00,
2013-03-07 21:51:00,40.3,33.1,30.14,ESE,115,0.3,0.0,75,0.00,,,-99.99,Meteorologica,2013-03-08 03:51:00,
2013-03-07 21:56:00,40.1,33.1,30.14,ESE,117,5.3,7.4,75,0.00,,,-99.99,Meteorologica,2013-03-08 03:56:00,
2013-03-07 22:01:00,40.0,33.0,30.15,ENE,77,1.3,3.4,75,0.00,,,-99.99,Meteorologica,2013-03-08 04:01:00,
2013-03-07 22:06:00,39.7,32.8,30.15,ESE,104,5.0,6.6,76,0.00,,,-99.99,Meteorologica,2013-03-08 04:06:00,
2013-03-07 22:11:00,39.5,32.6,30.16,SE,146,0.0,0.0,76,0.00,,,-99.99,Meteorologica,2013-03-08 04:11:00,
2013-03-07 22:16:00,39.3,32.6,30.16,ENE,64,0.4,0.0,76,0.00,,,-99.99,Meteorologica,2013-03-08 04:16:00,
2013-03-07 22:21:00,39.1,32.4,30.15,East,100,4.9,6.1,76,0.00,,,-99.99,Meteorologica,2013-03-08 04:21:00,
2013-03-07 22:26:00,38.9,32.3,30.15,East,101,0.0,0.0,77,0.00,,,-99.99,Meteorologica,2013-03-08 04:26:00,
2013-03-07 22:31:00,38.7,32.3,30.16,East,101,0.0,0.0,77,0.00,,,-99.99,Meteorologica,2013-03-08 04:31:00,
2013-03-07 22:36:00,38.5,32.2,30.15,ESE,111,4.8,9.4,77,0.00,,,-99.99,Meteorologica,2013-03-08 04:36:00,
2013-03-07 22:41:00,38.4,32.1,30.15,ESE,111,0.0,0.0,77,0.00,,,-99.99,Meteorologica,2013-03-08 04:41:00,
2013-03-07 22:46:00,38.3,32.1,30.16,SE,130,4.6,6.5,78,0.00,,,-99.99,Meteorologica,2013-03-08 04:46:00,
2013-03-07 22:51:00,38.2,32.1,30.16,SSE,159,4.9,7.9,78,0.00,,,-99.99,Meteorologica,2013-03-08 04:51:00,
2013-03-07 22:57:00,38.1,31.9,30.16,SSE,153,0.0,0.0,78,0.00,,,-99.99,Meteorologica,2013-03-08 04:57:00,
2013-03-07 23:01:00,37.8,31.8,30.16,SE,125,0.0,0.0,78,0.00,,,-99.99,Meteorologica,2013-03-08 05:01:00,
2013-03-07 23:03:00,37.9,31.9,30.16,ESE,121,3.1,5.6,78,0.00,,,-99.99,Meteorologica,2013-03-08 05:03:00,
2013-03-07 23:06:00,37.9,31.9,30.16,East,94,3.1,6.6,78,0.00,,,-99.99,Meteorologica,2013-03-08 05:06:00,
2013-03-07 23:07:00,37.9,32.0,30.16,East,98,3.1,8.7,79,0.00,,,-99.99,Meteorologica,2013-03-08 05:07:00,
2013-03-07 23:12:00,37.8,31.9,30.16,SE,135,5.1,8.7,79,0.00,,,-99.99,Meteorologica,2013-03-08 05:12:00,
2013-03-07 23:17:00,37.8,32.0,30.16,SE,140,5.9,9.3,79,0.00,,,-99.99,Meteorologica,2013-03-08 05:17:00,
2013-03-07 23:22:00,37.8,31.9,30.16,SE,131,5.9,10.0,79,0.00,,,-99.99,Meteorologica,2013-03-08 05:22:00,
2013-03-07 23:27:00,37.8,31.9,30.16,SE,129,4.9,10.9,79,0.00,,,-99.99,Meteorologica,2013-03-08 05:27:00,
2013-03-07 23:32:00,37.7,31.8,30.15,SE,141,1.0,6.2,79,0.00,,,-99.99,Meteorologica,2013-03-08 05:32:00,
2013-03-07 23:37:00,37.7,31.8,30.16,SSE,148,0.1,5.3,79,0.00,,,-99.99,Meteorologica,2013-03-08 05:37:00,
2013-03-07 23:42:00,37.6,31.9,30.15,SSE,151,2.4,11.5,79,0.00,,,-99.99,Meteorologica,2013-03-08 05:42:00,
2013-03-07 23:47:00,37.5,31.8,30.16,SSE,151,4.1,9.1,79,0.00,,,-99.99,Meteorologica,2013-03-08 05:47:00,
2013-03-07 23:52:00,37.5,31.7,30.16,South,187,2.3,5.4,79,0.00,,,-99.99,Meteorologica,2013-03-08 05:52:00,
2013-03-07 23:57:00,37.4,31.8,30.15,SE,130,5.8,6.8,79,0.00,,,-99.99,Meteorologica,2013-03-08 05:57:00,